Starlink 30708

operational
NORAD ID: 57944 Int'l Des: 2023-148 Owner: SPXS Country: US Constellation: starlink
LEOCIRCULAR

Starlink 30708について

説明を読み込み中...

リアルタイム位置

3D地球を読み込み中...

次回通過

高度履歴

Altitude vs Time

uPlot chart will show altitude changes over time

軌道要素

1 57944U 23148K 25351.33391188 -.00002556 00000-0 -74133-4 0 9991
2 57944 53.1599 46.7958 0002038 78.3155 281.8075 15.30216693125818
Epoch: Dec 17, 2025 • Age: 9 hours

現在のステータス

高度 474.7 km
速度 7.63 km/s
衛星直下点 14.96°N, 67.34°E
打ち上げ日 Sep 25, 2023
運用期間 2.2 years
タイプ internet

技術仕様

分類 Payload
質量 730.00 kg
乾燥質量 700.00 kg
総質量 730.00 kg
長さ 0.30 m
直径 4.10 m
スパン 29.00 m
形状 Box + pan
製造者 SPXS
バスタイプ Starlink V2M
フェーズステータス In Orbit
所有者/国 SPXS/US

大規模コンステレーション

Loading constellations...